Kezdőlap
METAR-TAF:

METAR-TAF

Repülőterek :

Spencer Municipal Airport

Spencer, Iowa, Amerikai Egyesült Államok

földrajzi szélesség: 43-09-56N, földrajzi hosszúság: 095-12-10W, magasság: 408 m

Jelenlegi meteorológiai megfigyelések

A jelentés 21 perccel ezelõtt készült, 13:53 UTC
Szélcsend
Hőmérséklet 1°C
Páratartalom 75%
Légköri nyomás 1028 hPa
Látótávolság: 16.1 km
Borult 8500 lábon

METAR: KSPW 041353Z AUTO 00000KT 10SM OVC085 01/M03 A3035 RMK AO2 SLP293 T00061028

Idő: 08:14 (14:14 UTC)


TAF: hiányzik

Meteorológiai megfigyelések és előrejelzések több, mint 4000 repülőtéren (METAR és TAF jelentéseket).

A térképen piros és sárga pontok jelzik az elérhető meteorológiai állomásokat.

Mozgassa az egeret a pont fölött, hogy megjelenjen az állomás neve.

Azután kattintson az időjárási megfigyelések és előrejelzések megtekintéséhez.

A térkép megváltoztatása: kattintson a fekete keresztel jelölt zöld gombra ráközelítéshez, a vonallal jelölt zöld gombra távolításhoz, vagy a zöld nyilakra a szomszédos térképek eléréséhez.


METAR-TAF: